#timestamp,LO_Frequency,Hit,StdDev 
1562425215.7,286046997.4,N
1562425235.5,286046998.6,N
1562425255.4,286046999.2,N
1562425275.2,286046998.7,N
1562425295.0,286047000.4,N
1562425295.9,286047000.4,N
1562425315.8,286047000.0,N
1562425335.6,286047000.5,N
1562425355.5,286046998.2,N
1562425375.3,286046998.9,N
1562425395.1,286046996.7,N
1562425415.9,286046997.1,N
1562425435.7,286046997.0,N
1562425455.5,286046999.1,N
1562425475.4,286046999.2,N
1562425495.2,286046998.9,N
1562425515.1,286047001.0,N
1562425516.0,286047001.0,N
1562425535.8,286047000.0,N
1562425555.6,286047001.1,N
1562425575.5,286047000.9,N
1562425595.3,286047000.5,N
1562425615.1,286047001.0,N
1562425635.9,286046998.7,N
1562425655.7,286046999.4,N
1562425675.6,286046999.3,N
1562425695.4,286046998.8,N
1562425715.2,286046996.5,N
1562425735.1,286046999.6,N
1562425736.0,286046999.6,N
1562425755.8,286046996.6,N
1562425775.7,286046997.5,N
1562425795.5,286046997.2,N
1562425815.3,286046997.4,N
1562425835.2,286046995.6,Y
1562425855.0,286046997.9,P
1562425855.9,286046997.9,P
1562425875.8,286046995.4,P
1562425895.6,286046995.2,Y
1562425915.4,286046998.8,P
1562425935.3,286046999.2,N
1562425955.1,286047001.1,N
1562425975.8,286047000.8,N
1562425995.7,286046996.5,N
1562426015.5,286046998.3,N
1562426035.4,286046999.0,N
1562426055.2,286046996.7,N
1562426075.0,286046997.4,N
1562426075.9,286046997.4,N
1562426095.8,286046997.5,N
1562426115.6,286046997.8,N
1562426135.5,286046995.1,Y
1562426155.3,286046998.8,P
1562426175.1,286046998.1,P
1562426195.9,286047000.8,N
1562426215.7,286046998.2,N
1562426235.5,286047001.2,N
1562426255.4,286047000.7,N
1562426275.2,286047000.9,N
1562426295.1,286047000.2,N
1562426296.0,286047000.2,N
1562426315.8,286046999.3,N
1562426335.6,286046997.0,N
1562426355.5,286046997.0,N
1562426375.3,286046999.2,N
1562426395.1,286046996.8,N
1562426415.7,286046996.8,N
1562426435.5,286046999.6,N
1562426455.4,286046998.7,N
1562426475.2,286046999.0,N
1562426495.1,286046997.8,N
1562426496.0,286046997.8,N
1562426515.8,286046997.8,N
1562426535.6,286046997.5,N
1562426555.5,286046998.0,N
1562426575.3,286046995.8,Y
1562426595.1,286046997.8,P
1562426615.9,286046997.5,P
1562426635.7,286046996.8,P
1562426655.6,286046997.6,Y
1562426675.4,286046998.9,P
1562426695.2,286046999.1,N
1562426715.1,286046999.2,N
1562426716.0,286046999.2,N
1562426735.8,286046996.7,Y
1562426755.7,286046998.2,P
1562426775.5,286047000.9,N
1562426795.3,286047001.1,N
1562426815.2,286046998.5,N
1562426835.0,286047000.3,N
1562426835.9,286047000.3,N
1562426855.7,286047000.1,N
1562426875.6,286046999.9,N
1562426895.4,286047000.7,N
1562426915.3,286047001.0,N
1562426935.1,286047002.8,N
1562426955.8,286046999.8,N
1562426975.7,286046999.8,N
1562426995.5,286047000.0,N
1562427015.4,286047000.7,N
1562427035.2,286047000.7,N
1562427055.0,286047000.4,N
1562427055.9,286047000.4,N
1562427075.8,286046999.8,N
1562427095.6,286047000.1,N
1562427115.4,286047002.4,N
1562427135.3,286047002.2,N
1562427155.1,286047003.2,N
1562427175.9,286047001.4,N
1562427195.7,286047004.1,Y
1562427215.5,286047001.7,P
1562427235.4,286047002.5,P
1562427255.2,286047001.9,N
1562427275.1,286047002.8,Y
1562427276.0,286047002.8,P
1562427295.8,286046998.9,N
1562427315.6,286046999.4,N
1562427335.5,286046998.7,N
1562427355.3,286046997.4,N
1562427375.1,286046999.1,N
1562427395.9,286046999.3,N
1562427415.7,286046996.8,N
1562427435.6,286046996.7,N
1562427455.4,286046999.6,N
1562427475.2,286046998.5,N
1562427495.1,286046998.1,N
1562427496.0,286046998.1,N
1562427515.8,286046999.9,N
1562427535.6,286047002.6,N
1562427555.5,286047001.7,N
1562427575.3,286047002.2,N
1562427595.2,286047002.1,N
1562427615.9,286047001.6,N
1562427635.7,286047004.3,N
1562427655.6,286047001.3,N
1562427675.4,286047001.4,N
1562427695.2,286047001.8,N
1562427715.1,286047004.4,N
1562427716.0,286047004.4,N
1562427735.8,286047002.1,N
1562427755.7,286047004.3,N
1562427775.5,286047004.1,N
1562427795.3,286047003.6,N
1562427815.2,286047003.3,N
1562427835.0,286047003.2,N
1562427835.9,286047003.2,N
1562427855.8,286047003.3,N
1562427875.6,286047003.5,N
1562427895.4,286047002.9,N
1562427915.3,286047005.8,N
1562427935.1,286047002.9,N
1562427955.8,286047005.8,N
1562427975.7,286047005.9,N
1562427995.5,286047005.6,N
1562428015.4,286047004.8,N
1562428035.2,286047005.5,N
1562428055.0,286047005.2,N
1562428055.9,286047005.2,Y
1562428075.8,286047002.8,P
1562428095.6,286047002.5,P
1562428115.4,286047002.8,P
1562428135.3,286047001.5,Y
1562428155.1,286046998.5,P
1562428175.9,286047000.4,N
1562428195.7,286047000.8,N
1562428215.5,286047000.0,N
1562428235.4,286047000.1,N
1562428255.2,286047002.3,N
1562428275.0,286047000.2,N
1562428276.0,286047000.2,N
1562428295.8,286047002.5,N
1562428315.6,286047000.1,N
1562428335.5,286047002.1,N
1562428355.3,286047002.4,N
1562428375.1,286047002.7,N
1562428395.9,286047002.4,N
1562428415.7,286047000.5,N
1562428435.6,286046999.8,N
1562428455.4,286047002.7,N
1562428475.2,286046999.8,N
1562428495.1,286047002.7,N
1562428496.0,286047002.7,N
1562428515.8,286046999.7,N
1562428535.6,286046999.7,N
1562428555.5,286047002.3,N
1562428575.3,286047002.4,N
1562428595.2,286047001.6,N
1562428615.9,286047004.0,Y
1562428635.7,286047001.8,P
1562428655.6,286047002.1,P
1562428675.4,286047001.9,P
1562428695.3,286047001.8,Y
1562428715.1,286047002.5,P
1562428716.0,286047002.5,P
1562428735.8,286047000.4,N
1562428755.7,286046999.8,N
1562428775.5,286047000.1,N
1562428795.3,286047000.9,N
